Aerbrava en el facebook Aerbrava en el twitter Google+ Instagram Aerbrava en el youtube tumblr flikr pinterest
Aerbrava in English aerbrava en Español
Escola de Pilots
Telèfon 972234126 972 23 41 26
 
Aerbrava in English aerbrava en Español
Aerbrava - meteorologia

Informació meteorològica aeronàutica

 

En aquest apartat apareix la informació meteorològica aeronàutica que és utilitzada a les pràctiques dels alumnes de l’Escola de Pilots del nostre centre durant la seva formació, pel que pot no ser actual i s’hauria d’utilitzar pel seu propi compte i risc. AERBRAVA no es fa responsable del seu ús.

 

TEMPS ACTUAL

Satèl·lit Meteorològic

sat24.com

Servei Meteorològic de Catalunya

 

LEGE 281830Z 19011KT CAVOK 22/11 Q1018
LEGE 281800Z 20009KT 170V230 CAVOK 23/11 Q1018
LEGE 281730Z 19012KT CAVOK 24/11 Q1018
LEGE 281700Z 19013KT CAVOK 24/11 Q1018
TAF LEGE 281700Z 2818/2918 VRB04KT 9999 FEW030 TX31/2913Z TN16/2906Z
TEMPO 2818/2820 18008KT
BECMG 2908/2910 18010KT
TEMPO 2912/2916 18015G25KT

Aviation Weather

 
Aerbrava en el facebook Aerbrava en el twitter Google+ Instagram Aerbrava en el youtube tumblr flikr pinterest

¡CSS Vàlid!